Minneapolis, MN

4:07 PM CST on December 15, 2017 (GMT -0600)
Minneapolis-Saint Paul International

Weather History for KMSP - January, 2012

Change the Weather History Date:

Tuesday, January 10, 2012

  Actual Average Record
Temperature  
Mean Temperature 40 °F 15 °F  
Max Temperature 52 °F 23 °F 52 °F (2012)
Min Temperature 27 °F 7 °F -30 °F (1886)
Degree Days  
Heating Degree Days 25 50  
Month to date heating degree days 336 493  
Since 1 July heating degree days 2742 3516  
Cooling Degree Days 0 0  
Month to date cooling degree days 0 0  
Year to date cooling degree days 0 0  
Moisture  
Dew Point 30 °F    
Average Humidity 66    
Maximum Humidity 85    
Minimum Humidity 46    
Precipitation  
Precipitation 0.00 in 0.03 in 1.13 in (1975)
Month to date precipitation T 0.32  
Year to date precipitation T 0.32  
Snow  
Snow 0.00 in 0.50 in 4.00 in (1975)
Month to date snowfall T 4.0  
Since 1 July snowfall 10.3 25.8  
Snow Depth 0.00 in    
Sea Level Pressure  
Sea Level Pressure 29.81 in    
Wind  
Wind Speed 4 mph (SSW)    
Max Wind Speed 15 mph    
Max Gust Speed 20 mph    
Visibility 10 miles    
Events      
T = Trace of Precipitation, MM = Missing Value Source: NWS Daily Summary

Daily Weather History Graph

Daily Weather History Graph

Search for Another Location

Airport or City:

Trip Planner

Search our weather history database for the weather conditions in past years. The results will help you decide how hot, cold, wet, or windy it might be!

Date:

Astronomy

Jan. 10, 2012 Rise Set
Actual Time 7:49 AM CST 4:51 PM CST
Civil Twilight 7:16 AM CST 5:24 PM CST
Nautical Twilight 6:39 AM CST 6:00 PM CST
Astronomical Twilight 6:04 AM CST 6:36 PM CST
Moon 6:49 PM CST (1/10) 8:22 AM CST (1/10)
Length of Visible Light 10h 07m
Length of Day
9h 01m
Full, 98% of the Moon is Illuminated
Jan 10
Full
Jan 16
Last Quarter
Jan 23
New
Jan 30
First Quarter
Feb 7
Full

Hourly Weather History & Observations

Time (CST) Temp. Windchill Dew Point Humidity Pressure Visibility Wind Dir Wind Speed Gust Speed Precip Events Conditions
12:53 AM 34.0 °F - 27.0 °F 75% 29.97 in 10.0 mi Calm Calm - N/A   Clear
1:53 AM 30.9 °F - 26.1 °F 82% 29.98 in 10.0 mi Calm Calm - N/A   Clear
2:53 AM 30.0 °F - 25.0 °F 82% 29.98 in 10.0 mi Calm Calm - N/A   Clear
3:53 AM 28.9 °F - 25.0 °F 85% 29.96 in 10.0 mi Calm Calm - N/A   Clear
4:53 AM 30.9 °F 25.2 °F 26.1 °F 82% 29.93 in 10.0 mi South 5.8 mph - N/A   Clear
5:53 AM 28.0 °F 24.2 °F 25.0 °F 88% 29.89 in 10.0 mi SE 3.5 mph - N/A   Clear
6:53 AM 27.0 °F - 23.0 °F 85% 29.90 in 10.0 mi Calm Calm - N/A   Clear
7:53 AM 32.0 °F 28.7 °F 26.1 °F 79% 29.90 in 10.0 mi South 3.5 mph - N/A   Clear
8:53 AM 32.0 °F 26.4 °F 27.0 °F 82% 29.89 in 10.0 mi South 5.8 mph - N/A   Partly Cloudy
9:53 AM 37.0 °F 32.4 °F 28.9 °F 73% 29.87 in 10.0 mi South 5.8 mph - N/A   Clear
10:53 AM 43.0 °F 41.3 °F 30.0 °F 60% 29.86 in 10.0 mi SSW 3.5 mph - N/A   Clear
11:53 AM 48.9 °F - 30.9 °F 50% 29.82 in 10.0 mi SSW 10.4 mph - N/A   Clear
12:53 PM 50.0 °F - 30.9 °F 48% 29.78 in 10.0 mi SW 10.4 mph - N/A   Clear
1:53 PM 52.0 °F - 32.0 °F 47% 29.74 in 10.0 mi SW 11.5 mph - N/A   Clear
2:53 PM 52.0 °F - 32.0 °F 47% 29.74 in 10.0 mi SW 8.1 mph - N/A   Clear
3:53 PM 52.0 °F - 34.0 °F 50% 29.73 in 10.0 mi WSW 8.1 mph - N/A   Partly Cloudy
4:53 PM 50.0 °F - 34.0 °F 54% 29.73 in 10.0 mi SW 4.6 mph - N/A   Partly Cloudy
5:53 PM 48.0 °F - 35.1 °F 61% 29.73 in 10.0 mi SSW 3.5 mph - N/A   Clear
6:53 PM 46.0 °F - 35.1 °F 66% 29.71 in 10.0 mi Calm Calm - N/A   Clear
7:53 PM 44.1 °F 41.5 °F 34.0 °F 68% 29.70 in 10.0 mi SSW 4.6 mph - N/A   Partly Cloudy
8:53 PM 44.1 °F 40.8 °F 34.0 °F 68% 29.68 in 10.0 mi SSW 5.8 mph - N/A   Partly Cloudy
9:53 PM 39.9 °F - 33.1 °F 77% 29.66 in 10.0 mi Calm Calm - N/A   Scattered Clouds
10:53 PM 39.9 °F - 33.1 °F 77% 29.65 in 10.0 mi Calm Calm - N/A   Scattered Clouds
11:53 PM 34.0 °F - 30.0 °F 85% 29.64 in 10.0 mi Calm Calm - N/A   Mostly Cloudy